[[{"header":{"parameterUnit":"m.s-1","parameterCategory":2,"la1":30.2991,"la2":30.254,"lo1":-89.0895,"lo2":-89.0444,"dy":0.0017,"dx":0.0017,"nx":28,"ny":28,"refTime":"2025-04-26T21:00:00:Z","depth":"0","parameterNumber":2,"parameterNumberName":"U-component_of_CURRENTS"},"data":[0,0,0,0,0,0,0,0,0,0,0,0,0,0,0,0,0,0,0,0,0,0,0,0,0,0,0,0,0,0,0,0,0,0,0,0,0,0,0,0,0,0,0,0,0,0,0,0,0,0,0,0,0,0,0,0,0,0,-0.2576,-0.2577,0,-0.2658,-0.2659,-0.266,-0.2656,-0.2655,-0.2654,-0.2653,-0.2586,-0.2585,-0.2584,0,0,0,0,0,0,0,0,0,0,0,0,0,-0.2423,-0.2426,-0.2576,-0.2577,-0.2578,-0.2658,-0.2659,-0.266,-0.2656,-0.2655,-0.2654,-0.2653,-0.2586,-0.2585,-0.2584,0,0,0,0,0,0,0,0,0,0,0,0,0,-0.2493,-0.2426,-0.2576,-0.2588,-0.259,-0.2658,-0.2659,-0.266,-0.2656,-0.2655,-0.2654,-0.2652,-0.2587,-0.2585,-0.2584,-0.2603,0,0,-0.258,-0.2579,0,0,0,0,0,0,0,0,-0.2489,-0.2499,-0.2585,-0.2587,-0.259,-0.2648,-0.2581,-0.2635,-0.2657,-0.2629,-0.2653,-0.2652,-0.2596,-0.2594,-0.261,-0.26,-0.2597,-0.258,-0.2579,-0.2578,-0.2578,0,0,0,0,0,0,0,-0.2484,-0.2495,-0.2606,-0.2587,-0.259,-0.2592,-0.26,-0.2591,-0.2614,-0.2631,-0.2631,-0.2645,-0.2595,-0.2612,-0.2608,-0.2596,-0.258,-0.2579,-0.2578,-0.2577,-0.2563,-0.2563,0,0,0,0,0,0,-0.2481,-0.2491,-0.2603,-0.2609,-0.2538,-0.2596,-0.2605,-0.2628,-0.2617,-0.2616,-0.2646,-0.2645,-0.2615,-0.261,-0.2606,-0.2599,-0.2578,-0.2577,-0.2576,-0.2563,-0.2563,-0.2564,0,0,0,0,0,0,-0.2478,-0.2491,-0.26,-0.2553,-0.2567,-0.2601,-0.2627,-0.2631,-0.2645,-0.2631,-0.2626,-0.2655,-0.2614,-0.2608,-0.2603,-0.2597,-0.2576,-0.2575,-0.2562,-0.2563,-0.2563,-0.2603,0,0,0,0,0,0,-0.2473,-0.249,-0.2498,-0.2553,-0.257,-0.2642,-0.2628,-0.2634,-0.2657,-0.2655,-0.2638,-0.263,-0.2612,-0.2605,-0.2602,-0.2595,-0.2574,-0.2561,-0.2562,-0.2563,-0.2601,-0.2605,-0.2608,0,0,0,0,0,-0.2468,-0.2495,-0.2498,-0.2512,-0.2583,-0.2644,-0.2653,-0.2669,-0.2658,-0.2674,-0.2661,-0.2631,-0.2607,-0.2606,-0.2601,-0.2593,-0.2561,-0.2562,-0.2563,-0.2599,-0.2604,-0.2608,0,0,0,0,0,0,-0.2435,-0.2499,-0.2504,-0.2548,-0.259,-0.2644,-0.2661,-0.2673,-0.268,-0.267,-0.2647,-0.264,-0.2632,-0.2613,-0.2611,-0.2592,-0.2575,-0.2575,-0.2604,-0.2608,-0.2612,-0.2597,-0.2573,0,0,0,0,0,-0.2433,-0.2464,-0.2525,-0.2556,-0.2579,-0.2618,-0.2641,-0.2659,-0.2679,-0.2681,-0.267,-0.265,-0.2637,-0.2623,-0.2613,-0.2607,-0.2579,-0.2596,-0.26,-0.2603,-0.2588,-0.2571,-0.2572,-0.2567,-0.2567,-0.2567,0,0,-0.2426,-0.2466,-0.2481,-0.2549,-0.258,-0.2618,-0.2628,-0.2673,-0.2686,-0.267,-0.2674,-0.2667,-0.2641,-0.2636,-0.2629,-0.2615,-0.2588,-0.2604,-0.2607,-0.259,-0.2573,-0.2573,-0.2573,-0.2568,-0.2568,-0.2567,0,0,-0.2438,-0.2467,-0.2499,-0.2537,-0.2594,-0.262,-0.2633,-0.2689,-0.2693,-0.2711,-0.2695,-0.2688,-0.2674,-0.2655,-0.2641,-0.2657,-0.2615,-0.2651,-0.2648,-0.2633,-0.2633,-0.2633,-0.2592,-0.2588,-0.2645,-0.2645,-0.2645,0,-0.2423,-0.2473,-0.2516,-0.2559,-0.258,-0.2619,-0.2651,-0.2673,-0.2713,-0.271,-0.271,-0.2695,-0.2678,-0.2657,-0.2662,-0.2662,-0.2641,-0.2635,-0.2637,-0.2636,-0.2635,-0.2594,-0.2588,-0.2647,-0.2647,-0.2647,-0.2646,0,-0.2462,-0.2496,-0.2521,-0.2575,-0.2606,-0.2643,-0.2681,-0.2699,-0.2705,-0.2718,-0.2713,-0.2708,-0.2689,-0.2689,-0.2678,-0.266,-0.2643,-0.2651,-0.2626,-0.2638,-0.2593,-0.2587,-0.265,-0.2649,-0.2649,-0.2648,0,0,-0.2436,-0.2528,-0.2532,-0.2549,-0.2614,-0.2641,-0.2664,-0.2692,-0.269,-0.2715,-0.2707,-0.2699,-0.2697,-0.268,-0.2672,-0.2658,-0.2636,-0.265,-0.2648,-0.2607,-0.2584,-0.2494,-0.2478,-0.2651,-0.265,-0.265,-0.2553,0,-0.2444,-0.2512,-0.2554,-0.2589,-0.262,-0.2651,-0.2664,-0.2687,-0.2699,-0.2703,-0.2696,-0.2689,-0.2692,-0.2683,-0.2673,-0.2654,-0.2622,-0.2659,-0.2578,-0.2575,-0.2493,-0.2469,-0.238,-0.228,-0.2547,-0.2546,-0.2545,0,-0.2457,-0.25,-0.2545,-0.2585,-0.2598,-0.2617,-0.2628,-0.2648,-0.2664,-0.2673,-0.2674,-0.2676,-0.2659,-0.2664,-0.2619,-0.2645,-0.2605,-0.2587,-0.2583,-0.2476,-0.2474,-0.2312,-0.2258,-0.2247,-0.2535,-0.2536,-0.2537,0,-0.2406,-0.2479,-0.2504,-0.2524,-0.2586,-0.2589,-0.2606,-0.263,-0.2633,-0.2649,-0.2652,-0.2647,-0.2633,-0.2609,-0.2572,-0.2596,-0.2514,-0.2542,-0.2414,-0.2407,-0.2298,-0.2282,-0.2217,-0.2484,-0.2485,-0.2485,-0.2485,0,-0.2392,-0.2408,-0.248,-0.2495,-0.2495,-0.255,-0.2544,-0.2565,-0.259,-0.2587,-0.2623,-0.2616,-0.2621,-0.2585,-0.2556,-0.2452,-0.2494,-0.2389,-0.2371,-0.2308,-0.2295,-0.2254,-0.2289,-0.2481,-0.2482,-0.2483,-0.2483,0,-0.2332,-0.2391,-0.2414,-0.247,-0.2475,-0.247,-0.2499,-0.2497,-0.2538,-0.2537,-0.254,-0.2575,-0.2532,-0.2506,-0.2454,-0.2406,-0.2287,-0.2281,-0.2191,-0.2163,-0.2035,-0.2075,-0.1971,-0.1912,-0.2124,-0.2121,-0.2118,0,-0.2308,-0.232,-0.2368,-0.2366,-0.2387,-0.2395,-0.2394,-0.2449,-0.2457,-0.2506,-0.2497,-0.2476,-0.2432,-0.2317,-0.2236,-0.2127,-0.2157,-0.1985,-0.2008,-0.1986,-0.2019,-0.2059,-0.2021,-0.1881,-0.1877,-0.1874,-0.1871,0,-0.2239,-0.2259,-0.2274,-0.2276,-0.2277,-0.2278,-0.2292,-0.2293,-0.236,-0.2365,-0.2365,-0.2336,-0.2244,-0.2105,-0.1972,-0.1908,-0.1943,-0.1909,-0.1917,-0.1832,-0.184,-0.1788,-0.1984,-0.1841,-0.1844,-0.1846,-0.1848,-0.1849,-0.216,-0.2149,-0.2167,-0.215,-0.2155,-0.2138,-0.2093,-0.2135,-0.2122,-0.2106,-0.2183,-0.2109,-0.2029,-0.1829,-0.175,-0.161,-0.1691,-0.158,-0.163,-0.1672,-0.161,-0.1717,-0.1542,-0.1543,-0.1544,-0.1545,-0.1546,0,-0.2046,-0.2043,-0.2032,-0.201,-0.1962,-0.2008,-0.1996,-0.1936,-0.1879,-0.1916,-0.1885,-0.1824,-0.1667,-0.1606,-0.1467,-0.1376,-0.1353,-0.1355,-0.1413,-0.1387,-0.149,-0.1475,-0.1239,-0.1239,-0.1239,-0.1239,-0.1239,-0.1239,-0.1985,-0.1934,-0.1929,-0.181,-0.1789,-0.1678,-0.1639,-0.1585,-0.1574,-0.1502,-0.1498,-0.1526,-0.1499,-0.1547,-0.1399,-0.131,-0.1297,-0.1244,-0.1278,-0.1393,-0.1419,-0.1445,-0.1437,-0.1197,-0.1197,-0.1118,-0.1118,-0.1118]},{"header":{"parameterUnit":"m.s-1","parameterCategory":2,"la1":30.2991,"la2":30.254,"lo1":-89.0895,"lo2":-89.0444,"dy":0.0017,"dx":0.0017,"nx":28,"ny":28,"refTime":"2025-04-26T21:00:00:Z","depth":"0","parameterNumber":3,"parameterNumberName":"V-component_of_CURRENTS"},"data":[0,0,0,0,0,0,0,0,0,0,0,0,0,0,0,0,0,0,0,0,0,0,0,0,0,0,0,0,0,0,0,0,0,0,0,0,0,0,0,0,0,0,0,0,0,0,0,0,0,0,0,0,0,0,0,0,0,0,-0.0309,-0.0308,0,-0.0198,-0.0196,-0.0194,-0.0113,-0.0113,-0.0113,-0.0112,0.0002,0.0005,0.0007,0,0,0,0,0,0,0,0,0,0,0,0,0,-0.0351,-0.0351,-0.0309,-0.0308,-0.0307,-0.0198,-0.0196,-0.0194,-0.0113,-0.0113,-0.0113,-0.0112,0.0001,0.0004,0.0008,0,0,0,0,0,0,0,0,0,0,0,0,0,-0.0292,-0.0351,-0.0309,-0.0256,-0.0251,-0.0198,-0.0196,-0.0194,-0.0113,-0.0113,-0.0112,-0.0112,-0.0,0.0004,0.0008,0.0024,0,0,0.0021,0.0022,0,0,0,0,0,0,0,0,-0.0296,-0.029,-0.0265,-0.026,-0.0254,-0.0172,-0.0169,-0.0122,-0.0114,-0.0161,-0.0112,-0.0112,-0.0059,-0.005,-0.0025,0.0029,0.0034,0.0021,0.0023,0.0025,0.0026,0,0,0,0,0,0,0,-0.03,-0.0294,-0.0261,-0.0264,-0.0257,-0.0204,-0.0196,-0.0159,-0.0111,-0.0157,-0.0152,-0.0146,-0.0055,-0.0029,-0.0021,0.0036,0.0021,0.0024,0.0027,0.0029,0.0114,0.0114,0,0,0,0,0,0,-0.0328,-0.0299,-0.0264,-0.0258,-0.0278,-0.0205,-0.0195,-0.0196,-0.0111,-0.0099,-0.0147,-0.0143,-0.0036,-0.0026,-0.0017,0.0004,0.0025,0.0029,0.0031,0.0115,0.0114,0.0114,0,0,0,0,0,0,-0.0329,-0.0326,-0.0269,-0.0278,-0.0268,-0.0206,-0.0206,-0.0194,-0.0169,-0.0104,-0.0091,-0.0136,-0.0035,-0.0023,0.0019,0.0009,0.0031,0.0035,0.0115,0.0114,0.0114,0.0048,0,0,0,0,0,0,-0.0331,-0.0327,-0.0333,-0.0281,-0.0268,-0.0247,-0.0207,-0.0192,-0.0168,-0.0162,-0.0091,-0.0079,-0.0034,0.0012,0.0023,0.0015,0.0038,0.0115,0.0115,0.0114,0.005,0.0045,0.0041,0,0,0,0,0,-0.0333,-0.0349,-0.0335,-0.033,-0.0281,-0.0248,-0.0236,-0.0187,-0.0169,-0.0161,-0.0108,-0.0081,0.0017,0.0015,0.0028,0.0021,0.0115,0.0115,0.0114,0.0052,0.0046,0.0041,0,0,0,0,0,0,-0.0366,-0.0341,-0.0324,-0.0331,-0.0296,-0.0236,-0.0227,-0.0196,-0.0147,-0.0143,-0.0078,-0.0063,-0.0033,0.0003,0.0,0.0045,0.0068,0.007,0.0016,0.0011,0.0007,-0.0012,0.0041,0,0,0,0,0,-0.0381,-0.0387,-0.0348,-0.0351,-0.0341,-0.0286,-0.0266,-0.0236,-0.0189,-0.0167,-0.0115,-0.0065,-0.0024,-0.0,0.0041,0.0068,0.0112,0.007,0.0065,0.0061,0.0054,0.0112,0.0112,0.0113,0.0113,0.0113,0,0,-0.0393,-0.0381,-0.0383,-0.0359,-0.0328,-0.0318,-0.0272,-0.0253,-0.0238,-0.0164,-0.0128,-0.0081,-0.0022,0.0011,0.0027,0.004,0.0087,0.0061,0.0057,0.0052,0.0112,0.0112,0.0112,0.0112,0.0112,0.0112,0,0,-0.0429,-0.0414,-0.0433,-0.0412,-0.0382,-0.0347,-0.0348,-0.0294,-0.0265,-0.0228,-0.0173,-0.0129,-0.0066,-0.002,0.0009,0.0003,0.0057,0.001,-0.0024,0.0032,0.0033,0.0034,0.0098,0.0106,0.0011,0.0011,0.001,0,-0.0444,-0.0462,-0.043,-0.0439,-0.0426,-0.0368,-0.0376,-0.0337,-0.0273,-0.0251,-0.023,-0.0128,-0.008,-0.0034,-0.0035,-0.0008,0.0035,-0.0009,0.0026,0.0028,0.003,0.0096,0.0105,0.0007,0.0008,0.0008,0.0008,0,-0.0491,-0.0499,-0.0508,-0.0501,-0.0481,-0.0478,-0.043,-0.0403,-0.0362,-0.0317,-0.0265,-0.019,-0.013,-0.011,-0.0074,-0.0039,-0.0008,0.001,0.0037,0.0025,0.0096,0.0107,0.0003,0.0004,0.0005,0.0006,0,0,-0.0535,-0.0542,-0.0543,-0.0551,-0.0515,-0.0505,-0.0484,-0.0444,-0.0427,-0.0361,-0.0329,-0.0256,-0.0211,-0.0175,-0.012,-0.0071,-0.0016,-0.0033,-0.0028,0.0026,0.0117,0.0162,0.0178,0.0008,0.0009,0.001,0.0164,0,-0.0577,-0.0621,-0.0601,-0.062,-0.0634,-0.0577,-0.056,-0.0515,-0.046,-0.0412,-0.0331,-0.0282,-0.0236,-0.0208,-0.0153,-0.0051,0.0007,-0.0059,0.0124,0.013,0.0167,0.0189,0.0232,0.0375,0.0174,0.0176,0.0177,0,-0.0626,-0.0649,-0.069,-0.0686,-0.0685,-0.0681,-0.064,-0.0615,-0.0534,-0.0491,-0.0424,-0.0354,-0.027,-0.0233,-0.0066,-0.011,-0.0008,0.0073,0.0081,0.0151,0.0194,0.0354,0.0402,0.0548,0.0194,0.0193,0.0191,0,-0.0683,-0.0704,-0.0742,-0.0741,-0.0728,-0.0727,-0.0708,-0.0644,-0.062,-0.0539,-0.0506,-0.0396,-0.0332,-0.0203,-0.0034,-0.005,0.0159,0.0164,0.0306,0.0312,0.0398,0.0409,0.0605,0.0282,0.0282,0.0281,0.0281,0,-0.0738,-0.0763,-0.0775,-0.0795,-0.0824,-0.0788,-0.0791,-0.0752,-0.069,-0.0659,-0.0554,-0.0495,-0.0324,-0.0181,-0.0038,0.0176,0.0165,0.0309,0.0355,0.0378,0.0384,0.0555,0.0602,0.0287,0.0286,0.0285,0.0284,0,-0.0795,-0.0804,-0.0846,-0.0855,-0.0858,-0.0877,-0.0856,-0.0851,-0.0782,-0.0736,-0.0713,-0.0559,-0.0367,-0.0174,0.0058,0.0179,0.0476,0.045,0.0469,0.0513,0.0753,0.0793,0.1026,0.1125,0.0622,0.0624,0.0626,0,-0.083,-0.0863,-0.0901,-0.0929,-0.0936,-0.0954,-0.0964,-0.0909,-0.0892,-0.0766,-0.0744,-0.0555,-0.0396,-0.0032,0.0215,0.0492,0.0598,0.0679,0.065,0.0785,0.0865,0.0889,0.0956,0.0751,0.0754,0.0756,0.0758,0,-0.0888,-0.0903,-0.0939,-0.1006,-0.1035,-0.1057,-0.1059,-0.1059,-0.0977,-0.0905,-0.0766,-0.0626,-0.0264,0.007,0.0421,0.0584,0.0791,0.073,0.0876,0.0987,0.1023,0.1133,0.0633,0.0777,0.0775,0.0773,0.0772,0.0772,-0.0921,-0.0965,-0.1017,-0.1072,-0.1112,-0.1143,-0.115,-0.1119,-0.1068,-0.0925,-0.0786,-0.0519,-0.0053,0.0454,0.0635,0.1017,0.0972,0.1126,0.1168,0.1184,0.1266,0.0804,0.0986,0.0986,0.0985,0.0985,0.0984,0,-0.0955,-0.1009,-0.1076,-0.1139,-0.1187,-0.1189,-0.1196,-0.116,-0.1084,-0.0904,-0.0719,-0.0165,0.0294,0.0711,0.1233,0.144,0.1485,0.1545,0.1597,0.1649,0.1262,0.1253,0.1494,0.1494,0.1494,0.1494,0.1493,0.1493,-0.0976,-0.1051,-0.109,-0.118,-0.1221,-0.1243,-0.1239,-0.1158,-0.1019,-0.0684,-0.0354,-0.0085,0.0515,0.1315,0.1786,0.1835,0.2012,0.2001,0.2093,0.1823,0.1787,0.1752,0.1758,0.2101,0.2101,0.2479,0.2483,0.2485]}],[{"header":{"parameterUnit":"m.s-1","parameterCategory":2,"la1":30.2991,"la2":30.254,"lo1":-89.0895,"lo2":-89.0444,"dy":0.0017,"dx":0.0017,"nx":28,"ny":28,"refTime":"2025-04-26T21:00:00:Z","depth":"2","parameterNumber":2,"parameterNumberName":"U-component_of_CURRENTS"},"data":[0,0,0,0,0,0,0,0,0,0,0,0,0,0,0,0,0,0,0,0,0,0,0,0,0,0,0,0,0,0,0,0,0,0,0,0,0,0,0,0,0,0,0,0,0,0,0,0,0,0,0,0,0,0,0,0,0,0,-0.216,-0.2161,0,-0.2198,-0.2198,-0.2198,-0.2182,-0.2181,-0.2181,-0.218,-0.2171,-0.2171,-0.2171,0,0,0,0,0,0,0,0,0,0,0,0,0,-0.2086,-0.2087,-0.216,-0.2161,-0.2162,-0.2197,-0.2198,-0.2198,-0.2182,-0.2181,-0.2181,-0.218,-0.2171,-0.2171,-0.2172,0,0,0,0,0,0,0,0,0,0,0,0,0,-0.2118,-0.2088,-0.216,-0.216,-0.216,-0.2197,-0.2198,-0.2198,-0.2182,-0.2181,-0.218,-0.2179,-0.217,-0.2171,-0.2172,-0.2196,0,0,-0.2173,-0.2174,0,0,0,0,0,0,0,0,-0.2116,-0.2121,-0.2159,-0.216,-0.216,-0.2186,-0.2168,-0.2196,-0.2183,-0.2172,-0.218,-0.2179,-0.2174,-0.2174,-0.2181,-0.2196,-0.2195,-0.2173,-0.2174,-0.2174,-0.2174,0,0,0,0,0,0,0,-0.2114,-0.2119,-0.2173,-0.216,-0.2161,-0.2162,-0.2165,-0.2174,-0.2175,-0.2172,-0.2172,-0.218,-0.2173,-0.218,-0.218,-0.2195,-0.2173,-0.2174,-0.2174,-0.2175,-0.2223,-0.2224,0,0,0,0,0,0,-0.2115,-0.2117,-0.2172,-0.2174,-0.2138,-0.2164,-0.2167,-0.2177,-0.2176,-0.2176,-0.2181,-0.2179,-0.218,-0.218,-0.218,-0.2206,-0.2174,-0.2175,-0.2175,-0.2222,-0.2223,-0.2224,0,0,0,0,0,0,-0.2113,-0.212,-0.217,-0.2148,-0.2155,-0.2166,-0.2178,-0.2178,-0.2186,-0.2184,-0.2182,-0.2188,-0.2179,-0.2179,-0.2193,-0.2205,-0.2175,-0.2175,-0.2221,-0.2222,-0.2224,-0.2259,0,0,0,0,0,0,-0.2111,-0.2119,-0.2124,-0.2148,-0.2156,-0.2196,-0.2179,-0.218,-0.2194,-0.2192,-0.2189,-0.2187,-0.2178,-0.2193,-0.2194,-0.2205,-0.2176,-0.222,-0.2222,-0.2223,-0.2256,-0.2261,-0.2265,0,0,0,0,0,-0.2108,-0.2123,-0.2124,-0.2131,-0.2164,-0.2197,-0.2201,-0.2204,-0.2195,-0.2205,-0.2203,-0.2187,-0.2204,-0.2194,-0.2196,-0.2207,-0.2219,-0.2221,-0.2223,-0.2254,-0.226,-0.2265,0,0,0,0,0,0,-0.2093,-0.2124,-0.2125,-0.2147,-0.2171,-0.2195,-0.2205,-0.221,-0.2218,-0.2213,-0.2204,-0.2203,-0.2219,-0.2213,-0.2202,-0.2227,-0.2208,-0.221,-0.2231,-0.2236,-0.2241,-0.2231,-0.2176,0,0,0,0,0,-0.2094,-0.2109,-0.2141,-0.2156,-0.217,-0.2189,-0.2201,-0.2209,-0.2222,-0.2224,-0.2225,-0.2225,-0.2231,-0.2232,-0.2238,-0.2255,-0.2233,-0.2263,-0.2267,-0.2271,-0.2264,-0.2257,-0.226,-0.2231,-0.2231,-0.2231,0,0,-0.2091,-0.211,-0.2117,-0.2154,-0.217,-0.2196,-0.2193,-0.2219,-0.2236,-0.2223,-0.2241,-0.2244,-0.224,-0.2258,-0.2264,-0.2252,-0.2266,-0.2273,-0.2277,-0.2268,-0.226,-0.2262,-0.2264,-0.2232,-0.2232,-0.2232,0,0,-0.2097,-0.2112,-0.2128,-0.2153,-0.2187,-0.2203,-0.2213,-0.2244,-0.2251,-0.2278,-0.2269,-0.2279,-0.2293,-0.229,-0.229,-0.2324,-0.2292,-0.2327,-0.2339,-0.2333,-0.2335,-0.2336,-0.2302,-0.23,-0.2327,-0.2327,-0.2327,0,-0.209,-0.2115,-0.2139,-0.2165,-0.2184,-0.2207,-0.2232,-0.2251,-0.2281,-0.2289,-0.2286,-0.2308,-0.2306,-0.2319,-0.2328,-0.2333,-0.2314,-0.2318,-0.2337,-0.2338,-0.2339,-0.2304,-0.2301,-0.2329,-0.2329,-0.2328,-0.2328,0,-0.211,-0.2132,-0.2147,-0.2183,-0.2209,-0.2235,-0.227,-0.2292,-0.2305,-0.2319,-0.2341,-0.2346,-0.2352,-0.2359,-0.2353,-0.2362,-0.2341,-0.2345,-0.2321,-0.2344,-0.2305,-0.2302,-0.2332,-0.2331,-0.233,-0.233,0,0,-0.2084,-0.2147,-0.215,-0.2167,-0.222,-0.2242,-0.2279,-0.2313,-0.2328,-0.2356,-0.2369,-0.2387,-0.2386,-0.2386,-0.2384,-0.2379,-0.2368,-0.2365,-0.2363,-0.2324,-0.2332,-0.2247,-0.2235,-0.2377,-0.2377,-0.2377,-0.2298,0,-0.2087,-0.213,-0.2165,-0.2202,-0.2225,-0.2265,-0.2295,-0.2329,-0.2353,-0.2374,-0.2385,-0.2397,-0.2398,-0.2399,-0.2399,-0.2383,-0.2363,-0.2387,-0.232,-0.2317,-0.2235,-0.223,-0.208,-0.1991,-0.2294,-0.2294,-0.2293,0,-0.2087,-0.2117,-0.2153,-0.2206,-0.222,-0.2246,-0.229,-0.2322,-0.2363,-0.238,-0.2401,-0.2408,-0.2414,-0.2408,-0.2383,-0.2399,-0.2362,-0.2343,-0.234,-0.2244,-0.2226,-0.202,-0.1973,-0.2287,-0.2288,-0.2288,-0.2289,0,-0.204,-0.2103,-0.2126,-0.2147,-0.2214,-0.2234,-0.2267,-0.2316,-0.2337,-0.2378,-0.239,-0.2409,-0.2406,-0.2388,-0.2352,-0.2368,-0.2306,-0.2324,-0.2205,-0.2198,-0.2046,-0.2026,-0.2284,-0.2285,-0.2285,-0.2285,-0.2285,0,-0.2021,-0.2038,-0.2106,-0.2118,-0.2141,-0.2203,-0.2228,-0.2268,-0.2317,-0.2332,-0.238,-0.2386,-0.2401,-0.2374,-0.2345,-0.2253,-0.2297,-0.2191,-0.2171,-0.2053,-0.2035,-0.2279,-0.2279,-0.2282,-0.2283,-0.2283,-0.2284,0,-0.196,-0.2009,-0.2034,-0.2101,-0.2118,-0.2131,-0.2195,-0.2212,-0.2273,-0.2294,-0.2305,-0.2356,-0.2324,-0.2308,-0.2266,-0.2221,-0.2159,-0.2108,-0.1954,-0.1917,-0.2055,-0.2059,-0.1974,-0.1971,-0.1968,-0.1965,-0.1963,0,-0.193,-0.1937,-0.1997,-0.2005,-0.2032,-0.2067,-0.2087,-0.2169,-0.2191,-0.2266,-0.2264,-0.2263,-0.2224,-0.2132,-0.2057,-0.196,-0.2049,-0.1774,-0.178,-0.2034,-0.2023,-0.2032,-0.2039,-0.1588,-0.1583,-0.1579,-0.1576,0,-0.186,-0.1881,-0.1899,-0.1918,-0.1939,-0.1964,-0.2005,-0.2017,-0.2109,-0.2125,-0.2136,-0.2113,-0.2039,-0.1879,-0.1766,-0.1704,-0.1786,-0.1685,-0.198,-0.1698,-0.1665,-0.1657,-0.1678,-0.1539,-0.1543,-0.1545,-0.1547,-0.1549,-0.1789,-0.1781,-0.1803,-0.1808,-0.1834,-0.1837,-0.1812,-0.1865,-0.187,-0.1865,-0.1944,-0.1852,-0.1825,-0.1569,-0.1468,-0.1393,-0.1521,-0.1464,-0.1478,-0.1497,-0.1474,-0.1439,-0.1264,-0.1266,-0.1268,-0.1269,-0.127,0,-0.1687,-0.1689,-0.169,-0.169,-0.1665,-0.172,-0.1731,-0.168,-0.1634,-0.1656,-0.1628,-0.144,-0.1314,-0.1291,-0.1109,-0.1063,-0.107,-0.1027,-0.1048,-0.1085,-0.1117,-0.1078,-0.076,-0.0759,-0.0758,-0.0756,0,0,-0.1633,-0.1592,-0.1591,-0.1511,-0.151,-0.1431,-0.1404,-0.1351,-0.1328,-0.1237,-0.1187,-0.1258,-0.1261,-0.1024,-0.0955,-0.0831,-0.0953,-0.0785,-0.1193,-0.1256,-0.1287,-0.1365,-0.1344,0,0,0,0,0]},{"header":{"parameterUnit":"m.s-1","parameterCategory":2,"la1":30.2991,"la2":30.254,"lo1":-89.0895,"lo2":-89.0444,"dy":0.0017,"dx":0.0017,"nx":28,"ny":28,"refTime":"2025-04-26T21:00:00:Z","depth":"2","parameterNumber":3,"parameterNumberName":"V-component_of_CURRENTS"},"data":[0,0,0,0,0,0,0,0,0,0,0,0,0,0,0,0,0,0,0,0,0,0,0,0,0,0,0,0,0,0,0,0,0,0,0,0,0,0,0,0,0,0,0,0,0,0,0,0,0,0,0,0,0,0,0,0,0,0,-0.0336,-0.0336,0,-0.0265,-0.0264,-0.0263,-0.0206,-0.0206,-0.0205,-0.0205,-0.0089,-0.0086,-0.0083,0,0,0,0,0,0,0,0,0,0,0,0,0,-0.0351,-0.0351,-0.0336,-0.0336,-0.0335,-0.0265,-0.0264,-0.0263,-0.0206,-0.0206,-0.0205,-0.0205,-0.009,-0.0087,-0.0083,0,0,0,0,0,0,0,0,0,0,0,0,0,-0.0316,-0.0351,-0.0336,-0.03,-0.0296,-0.0266,-0.0264,-0.0263,-0.0206,-0.0206,-0.0205,-0.0205,-0.0091,-0.0087,-0.0083,-0.0067,0,0,-0.007,-0.0068,0,0,0,0,0,0,0,0,-0.0318,-0.0315,-0.0306,-0.0303,-0.0298,-0.0246,-0.0227,-0.0196,-0.0206,-0.0238,-0.0205,-0.0204,-0.0139,-0.0131,-0.0116,-0.0062,-0.0057,-0.007,-0.0067,-0.0065,-0.0064,0,0,0,0,0,0,0,-0.0321,-0.0318,-0.0305,-0.0306,-0.0301,-0.0263,-0.0258,-0.022,-0.0189,-0.0235,-0.0231,-0.0228,-0.0137,-0.012,-0.0113,-0.0055,-0.007,-0.0066,-0.0063,-0.0062,0.0034,0.0034,0,0,0,0,0,0,-0.0339,-0.0321,-0.0308,-0.0304,-0.031,-0.0264,-0.0258,-0.0261,-0.0191,-0.018,-0.0228,-0.0225,-0.0127,-0.0118,-0.0108,-0.0076,-0.0065,-0.0061,-0.0059,0.0034,0.0034,0.0034,0,0,0,0,0,0,-0.034,-0.0339,-0.0311,-0.0312,-0.0306,-0.0265,-0.0269,-0.026,-0.0245,-0.0187,-0.0175,-0.0222,-0.0127,-0.0114,-0.0072,-0.0072,-0.006,-0.0056,0.0034,0.0034,0.0034,-0.0018,0,0,0,0,0,0,-0.0341,-0.034,-0.0347,-0.0314,-0.0307,-0.03,-0.0269,-0.0259,-0.0245,-0.024,-0.0177,-0.0166,-0.0125,-0.0078,-0.0068,-0.0066,-0.0053,0.0034,0.0034,0.0034,-0.0016,-0.002,-0.0023,0,0,0,0,0,-0.0342,-0.0359,-0.0348,-0.0346,-0.0319,-0.0301,-0.0294,-0.026,-0.0245,-0.0243,-0.0195,-0.0168,-0.007,-0.0075,-0.0062,-0.0059,0.0034,0.0034,0.0034,-0.0015,-0.0019,-0.0023,0,0,0,0,0,0,-0.0366,-0.0354,-0.0341,-0.0352,-0.0331,-0.0292,-0.0289,-0.0267,-0.0228,-0.0222,-0.0164,-0.0149,-0.0113,-0.008,-0.0087,-0.0031,-0.0015,-0.0012,-0.0057,-0.006,-0.0063,-0.008,-0.0049,0,0,0,0,0,-0.0377,-0.0386,-0.0363,-0.037,-0.0364,-0.0328,-0.0316,-0.0295,-0.0259,-0.0241,-0.0195,-0.0147,-0.0103,-0.0078,-0.0037,-0.0006,0.0031,0.0003,0.0,-0.0003,-0.0008,0.0047,0.0048,0.0035,0.0035,0.0035,0,0,-0.0387,-0.0382,-0.0386,-0.0375,-0.0356,-0.0352,-0.0319,-0.0309,-0.0297,-0.0235,-0.0202,-0.0158,-0.0098,-0.0062,-0.0043,-0.0033,0.0022,-0.0003,-0.0006,-0.0009,0.0047,0.0048,0.0049,0.0035,0.0035,0.0035,0,0,-0.0418,-0.041,-0.0429,-0.0417,-0.04,-0.0375,-0.0377,-0.0342,-0.0317,-0.0285,-0.0234,-0.0189,-0.0128,-0.008,-0.0049,-0.0045,0.0001,-0.0037,-0.0061,-0.0008,-0.0007,-0.0005,0.0046,0.0053,-0.0035,-0.0035,-0.0035,0,-0.0429,-0.045,-0.0429,-0.0441,-0.0434,-0.0391,-0.0401,-0.037,-0.0322,-0.03,-0.0283,-0.0183,-0.0134,-0.0079,-0.0077,-0.0052,-0.0018,-0.0053,-0.0013,-0.001,-0.0008,0.0045,0.0053,-0.0038,-0.0038,-0.0037,-0.0037,0,-0.0472,-0.0484,-0.0494,-0.0493,-0.0481,-0.0483,-0.0444,-0.0421,-0.0387,-0.0349,-0.0294,-0.0223,-0.0163,-0.014,-0.0107,-0.0064,-0.0044,-0.0026,-0.0007,-0.001,0.0046,0.0055,-0.0041,-0.004,-0.004,-0.0039,0,0,-0.0508,-0.0523,-0.0525,-0.0534,-0.051,-0.0505,-0.0483,-0.0449,-0.0431,-0.0373,-0.034,-0.0261,-0.0223,-0.0186,-0.0132,-0.0085,-0.0033,-0.0056,-0.0052,-0.0011,0.0083,0.0106,0.0119,-0.0011,-0.001,-0.0009,0.0115,0,-0.0544,-0.0588,-0.0576,-0.0596,-0.0611,-0.0564,-0.0547,-0.0506,-0.0458,-0.0413,-0.0331,-0.0282,-0.0239,-0.0211,-0.0156,-0.0066,-0.0012,-0.0068,0.0085,0.009,0.0106,0.0129,0.0104,0.0213,0.0125,0.0126,0.0128,0,-0.0589,-0.0612,-0.0652,-0.0653,-0.0653,-0.0652,-0.0614,-0.0592,-0.0514,-0.0475,-0.0408,-0.0344,-0.0259,-0.0227,-0.0074,-0.0115,-0.0024,0.0047,0.0054,0.0099,0.013,0.0203,0.0234,0.0144,0.0142,0.0141,0.014,0,-0.0633,-0.0659,-0.0694,-0.0696,-0.069,-0.0689,-0.0674,-0.0614,-0.0592,-0.0514,-0.0486,-0.0378,-0.0318,-0.0201,-0.0053,-0.0064,0.0117,0.0126,0.0238,0.0241,0.0261,0.0264,0.0237,0.0237,0.0237,0.0236,0.0236,0,-0.0679,-0.0704,-0.0722,-0.0742,-0.0769,-0.0741,-0.0744,-0.0708,-0.0652,-0.0625,-0.0526,-0.0473,-0.0311,-0.0186,-0.0059,0.0121,0.0119,0.024,0.0277,0.0243,0.0242,0.0211,0.0207,0.0241,0.024,0.0239,0.0238,0,-0.0723,-0.0738,-0.0779,-0.0792,-0.0797,-0.0815,-0.0803,-0.0798,-0.0738,-0.0697,-0.0676,-0.0536,-0.0371,-0.0196,0.0011,0.0116,0.0282,0.0349,0.0297,0.0325,0.037,0.0361,0.0479,0.0481,0.0483,0.0484,0.0485,0,-0.075,-0.0782,-0.0824,-0.0852,-0.0863,-0.0882,-0.0893,-0.0849,-0.0835,-0.0729,-0.071,-0.0547,-0.0412,-0.01,0.0112,0.0348,0.0348,0.0454,0.043,0.0372,0.0397,0.0385,0.0374,0.0443,0.0444,0.0445,0.0445,0,-0.0794,-0.0812,-0.0846,-0.0913,-0.0944,-0.097,-0.0976,-0.0979,-0.0912,-0.0853,-0.074,-0.0622,-0.0322,-0.0066,0.023,0.0362,0.0409,0.0473,0.0447,0.0376,0.0346,0.0367,0.0356,0.045,0.045,0.0449,0.0449,0.0449,-0.0817,-0.0856,-0.0907,-0.0964,-0.1006,-0.1042,-0.1051,-0.1031,-0.0993,-0.0876,-0.0767,-0.0552,-0.0319,0.0113,0.0311,0.0493,0.049,0.0535,0.0531,0.0526,0.0489,0.0463,0.0583,0.0583,0.0583,0.0584,0.0584,0,-0.0839,-0.0889,-0.0952,-0.1018,-0.1066,-0.1076,-0.1091,-0.1063,-0.1005,-0.0864,-0.0716,-0.0427,-0.0138,0.011,0.0402,0.0567,0.0547,0.0591,0.053,0.0524,0.0519,0.0479,0.0572,0.0572,0.0573,0.0573,0,0,-0.0854,-0.092,-0.0957,-0.1045,-0.1091,-0.1122,-0.1124,-0.1059,-0.0951,-0.079,-0.0618,-0.0404,-0.011,0.0092,0.0296,0.0445,0.044,0.0458,0.0452,0.035,0.0343,0.0474,0.0405,0,0,0,0,0]}],[{"header":{"parameterUnit":"m.s-1","parameterCategory":2,"la1":30.2991,"la2":30.254,"lo1":-89.0895,"lo2":-89.0444,"dy":0.0017,"dx":0.0017,"nx":28,"ny":28,"refTime":"2025-04-26T21:00:00:Z","depth":"4","parameterNumber":2,"parameterNumberName":"U-component_of_CURRENTS"},"data":[0,0,0,0,0,0,0,0,0,0,0,0,0,0,0,0,0,0,0,0,0,0,0,0,0,0,0,0,0,0,0,0,0,0,0,0,0,0,0,0,0,0,0,0,0,0,0,0,0,0,0,0,0,0,0,0,0,0,-0.1445,-0.1445,0,-0.1485,-0.1485,-0.1485,-0.1507,-0.1508,-0.1508,-0.1508,-0.1578,-0.158,-0.1581,0,0,0,0,0,0,0,0,0,0,0,0,0,-0.139,-0.1391,-0.1445,-0.1445,-0.1446,-0.1485,-0.1485,-0.1485,-0.1507,-0.1508,-0.1508,-0.1508,-0.1578,-0.158,-0.1582,0,0,0,0,0,0,0,0,0,0,0,0,0,-0.1419,-0.1391,-0.1445,-0.1463,-0.1465,-0.1485,-0.1485,-0.1485,-0.1507,-0.1508,-0.1508,-0.1508,-0.1577,-0.1579,-0.1582,-0.159,0,0,-0.1589,-0.159,0,0,0,0,0,0,0,0,-0.1417,-0.142,-0.146,-0.1462,-0.1465,-0.1493,-0.1492,-0.1522,-0.1507,-0.1489,-0.1508,-0.1509,-0.1554,-0.1558,-0.1561,-0.1593,-0.1596,-0.159,-0.1591,-0.1592,-0.1593,0,0,0,0,0,0,0,-0.1415,-0.1419,-0.1459,-0.1461,-0.1463,-0.1471,-0.1475,-0.1497,-0.1518,-0.1491,-0.1493,-0.1501,-0.1555,-0.1559,-0.1563,-0.1597,-0.159,-0.1592,-0.1593,-0.1594,-0.1708,-0.1709,0,0,0,0,0,0,-0.1414,-0.1417,-0.1457,-0.146,-0.1443,-0.1471,-0.1476,-0.1482,-0.1517,-0.1523,-0.15,-0.1502,-0.1555,-0.156,-0.1566,-0.1642,-0.1592,-0.1594,-0.1596,-0.1706,-0.1708,-0.171,0,0,0,0,0,0,-0.1412,-0.1417,-0.1456,-0.1441,-0.1447,-0.1472,-0.1479,-0.1483,-0.1511,-0.1524,-0.1531,-0.1527,-0.1555,-0.1563,-0.1609,-0.1642,-0.1595,-0.1598,-0.1704,-0.1707,-0.1709,-0.1752,0,0,0,0,0,0,-0.141,-0.1416,-0.1431,-0.1441,-0.1448,-0.1483,-0.1479,-0.1483,-0.1514,-0.1517,-0.1549,-0.1555,-0.1556,-0.1606,-0.1612,-0.1645,-0.16,-0.1702,-0.1705,-0.1708,-0.1749,-0.1755,-0.1761,0,0,0,0,0,-0.1408,-0.1423,-0.1431,-0.1437,-0.1464,-0.1485,-0.1489,-0.1506,-0.1516,-0.1533,-0.1557,-0.1555,-0.1628,-0.1609,-0.1616,-0.165,-0.1701,-0.1704,-0.1708,-0.1746,-0.1754,-0.1761,0,0,0,0,0,0,-0.1409,-0.1427,-0.1436,-0.1457,-0.1478,-0.149,-0.151,-0.1522,-0.1554,-0.1565,-0.1574,-0.1582,-0.1635,-0.1638,-0.1617,-0.1692,-0.1665,-0.167,-0.1691,-0.1699,-0.1706,-0.1697,-0.1602,0,0,0,0,0,-0.1415,-0.1432,-0.145,-0.147,-0.1483,-0.1502,-0.1518,-0.1532,-0.1555,-0.157,-0.1594,-0.1622,-0.165,-0.1672,-0.1694,-0.1737,-0.1718,-0.1764,-0.1771,-0.1776,-0.1775,-0.1779,-0.1785,-0.1721,-0.1721,-0.1721,0,0,-0.1422,-0.1435,-0.1446,-0.1472,-0.149,-0.1514,-0.1513,-0.1545,-0.1574,-0.1574,-0.163,-0.1648,-0.1667,-0.1713,-0.1737,-0.1723,-0.1783,-0.178,-0.1785,-0.178,-0.1783,-0.1789,-0.1794,-0.1723,-0.1723,-0.1723,0,0,-0.1433,-0.1456,-0.1471,-0.1493,-0.1526,-0.154,-0.1556,-0.1586,-0.1612,-0.1661,-0.1669,-0.1707,-0.1754,-0.177,-0.1783,-0.184,-0.1816,-0.1855,-0.1883,-0.1888,-0.1892,-0.1896,-0.1868,-0.1869,-0.1859,-0.1859,-0.1859,0,-0.1443,-0.1462,-0.1481,-0.1503,-0.1527,-0.1555,-0.1582,-0.1611,-0.1657,-0.1682,-0.1689,-0.1761,-0.1779,-0.1825,-0.1845,-0.1854,-0.184,-0.1851,-0.1894,-0.1898,-0.1901,-0.1871,-0.1872,-0.1862,-0.1861,-0.1861,-0.1861,0,-0.1456,-0.1485,-0.15,-0.1536,-0.1567,-0.1596,-0.1637,-0.1679,-0.1716,-0.174,-0.1804,-0.1827,-0.1866,-0.1884,-0.1883,-0.1924,-0.1899,-0.1899,-0.187,-0.191,-0.1876,-0.1876,-0.1865,-0.1864,-0.1864,-0.1863,0,0,-0.1436,-0.1497,-0.1504,-0.153,-0.1589,-0.1611,-0.1674,-0.1726,-0.1766,-0.1818,-0.1862,-0.1916,-0.1928,-0.1943,-0.1953,-0.196,-0.1969,-0.1943,-0.1942,-0.1905,-0.1956,-0.1823,-0.181,-0.1977,-0.1978,-0.1978,-0.1917,0,-0.1441,-0.1483,-0.1519,-0.1573,-0.1598,-0.1655,-0.1708,-0.1765,-0.1813,-0.1865,-0.1902,-0.1947,-0.1952,-0.1973,-0.1986,-0.1978,-0.1973,-0.1984,-0.1931,-0.1928,-0.1798,-0.1807,-0.198,-0.1917,-0.1917,-0.1916,-0.1916,0,-0.1432,-0.1465,-0.1515,-0.159,-0.1609,-0.1654,-0.174,-0.1791,-0.1868,-0.1906,-0.1958,-0.1981,-0.2017,-0.2008,-0.2011,-0.2019,-0.199,-0.1974,-0.1971,-0.1831,-0.1796,-0.1873,-0.1916,-0.1916,-0.1916,-0.1916,-0.1916,0,-0.1386,-0.146,-0.1501,-0.1527,-0.1617,-0.1664,-0.172,-0.1805,-0.1848,-0.193,-0.1957,-0.2009,-0.2028,-0.2023,-0.1997,-0.2009,-0.1971,-0.1981,-0.1829,-0.1819,-0.1937,-0.1934,-0.1966,-0.1966,-0.1966,-0.1966,-0.1966,0,-0.1356,-0.1393,-0.1488,-0.1508,-0.1568,-0.1646,-0.1715,-0.1778,-0.1861,-0.1896,-0.1971,-0.1987,-0.2033,-0.202,-0.1997,-0.1897,-0.197,-0.1821,-0.1795,-0.1955,-0.1955,-0.1935,-0.1933,-0.1964,-0.1964,-0.1965,-0.1965,0,-0.1288,-0.1353,-0.1403,-0.1507,-0.1544,-0.1587,-0.17,-0.1739,-0.1831,-0.1876,-0.19,-0.1969,-0.1947,-0.1954,-0.1931,-0.187,-0.1807,-0.1751,-0.1897,-0.1882,-0.1651,-0.1652,-0.1577,-0.1572,-0.1567,-0.1564,-0.156,0,-0.1252,-0.1271,-0.1382,-0.1414,-0.1464,-0.1545,-0.1592,-0.1707,-0.1741,-0.1841,-0.1839,-0.1862,-0.1885,-0.1732,-0.1769,-0.1693,-0.1675,-0.163,-0.1663,-0.1629,-0.1612,-0.1619,-0.1626,-0.1553,-0.1552,-0.1551,-0.155,0,-0.1177,-0.1228,-0.1269,-0.1332,-0.1391,-0.1447,-0.1524,-0.1533,-0.1649,-0.1746,-0.1718,-0.1697,-0.1661,-0.1635,-0.1575,-0.1533,-0.166,-0.1584,-0.1594,-0.1625,-0.16,-0.1589,-0.16,-0.1535,-0.1537,-0.1538,-0.1539,0,-0.1119,-0.1129,-0.1188,-0.1232,-0.13,-0.1319,-0.1379,-0.1408,-0.1454,-0.1567,-0.1551,-0.1577,-0.1639,-0.1548,-0.1503,-0.144,-0.1426,-0.1386,-0.1406,-0.1423,-0.1402,-0.135,-0.1172,0,0,0,0,0,-0.1052,-0.105,-0.1082,-0.1122,-0.1183,-0.122,-0.1315,-0.1378,-0.1486,-0.1419,-0.148,-0.144,-0.138,-0.1402,-0.1301,-0.1432,-0.1431,-0.131,-0.1397,-0.1451,-0.1468,-0.1459,0,0,0,0,0,0,-0.1007,-0.103,-0.1039,-0.1014,-0.102,-0.1072,-0.1125,-0.1204,-0.1178,-0.129,-0.1258,-0.1344,-0.1299,-0.1398,-0.1265,-0.1269,-0.1291,-0.1338,-0.1334,-0.1441,-0.1457,-0.1471,-0.1467,0,0,0,0,0]},{"header":{"parameterUnit":"m.s-1","parameterCategory":2,"la1":30.2991,"la2":30.254,"lo1":-89.0895,"lo2":-89.0444,"dy":0.0017,"dx":0.0017,"nx":28,"ny":28,"refTime":"2025-04-26T21:00:00:Z","depth":"4","parameterNumber":3,"parameterNumberName":"V-component_of_CURRENTS"},"data":[0,0,0,0,0,0,0,0,0,0,0,0,0,0,0,0,0,0,0,0,0,0,0,0,0,0,0,0,0,0,0,0,0,0,0,0,0,0,0,0,0,0,0,0,0,0,0,0,0,0,0,0,0,0,0,0,0,0,-0.0262,-0.0261,0,-0.0228,-0.0227,-0.0227,-0.0198,-0.0198,-0.0198,-0.0197,-0.011,-0.0108,-0.0106,0,0,0,0,0,0,0,0,0,0,0,0,0,-0.0255,-0.0255,-0.0262,-0.0261,-0.0261,-0.0228,-0.0227,-0.0227,-0.0198,-0.0198,-0.0198,-0.0197,-0.0111,-0.0108,-0.0106,0,0,0,0,0,0,0,0,0,0,0,0,0,-0.0242,-0.0255,-0.0262,-0.0244,-0.0242,-0.0228,-0.0227,-0.0227,-0.0198,-0.0198,-0.0197,-0.0197,-0.0112,-0.0109,-0.0105,-0.009,0,0,-0.0096,-0.0094,0,0,0,0,0,0,0,0,-0.0242,-0.0242,-0.0247,-0.0245,-0.0243,-0.0218,-0.0193,-0.0179,-0.0198,-0.0213,-0.0197,-0.0197,-0.0143,-0.0137,-0.0129,-0.0086,-0.0082,-0.0095,-0.0093,-0.0092,-0.0091,0,0,0,0,0,0,0,-0.0243,-0.0243,-0.0247,-0.0247,-0.0244,-0.0222,-0.022,-0.019,-0.0177,-0.0212,-0.021,-0.0209,-0.0141,-0.0133,-0.0127,-0.0081,-0.0095,-0.0092,-0.009,-0.0089,-0.0011,-0.001,0,0,0,0,0,0,-0.0254,-0.0244,-0.0248,-0.0246,-0.0244,-0.0223,-0.022,-0.0225,-0.0179,-0.0172,-0.0209,-0.0208,-0.0138,-0.0131,-0.0124,-0.0097,-0.0092,-0.0089,-0.0087,-0.0011,-0.0011,-0.001,0,0,0,0,0,0,-0.0254,-0.0255,-0.0249,-0.0245,-0.0243,-0.0224,-0.0229,-0.0225,-0.022,-0.0178,-0.017,-0.021,-0.0138,-0.0128,-0.0098,-0.0094,-0.0087,-0.0084,-0.0011,-0.0011,-0.001,-0.0048,0,0,0,0,0,0,-0.0254,-0.0255,-0.0263,-0.0246,-0.0244,-0.0248,-0.0229,-0.0224,-0.0221,-0.0219,-0.0176,-0.0167,-0.0137,-0.0103,-0.0094,-0.0089,-0.0082,-0.0011,-0.0011,-0.0011,-0.0047,-0.0049,-0.0051,0,0,0,0,0,-0.0254,-0.0269,-0.0264,-0.0264,-0.0255,-0.0249,-0.0245,-0.0229,-0.0221,-0.0223,-0.019,-0.0169,-0.0095,-0.01,-0.009,-0.0084,-0.0011,-0.0011,-0.0011,-0.0046,-0.0049,-0.0051,0,0,0,0,0,0,-0.0268,-0.0267,-0.0261,-0.0274,-0.0265,-0.0245,-0.0247,-0.0235,-0.0212,-0.0209,-0.0166,-0.0155,-0.0127,-0.0102,-0.0108,-0.0061,-0.005,-0.0048,-0.008,-0.0082,-0.0084,-0.0097,-0.0079,0,0,0,0,0,-0.0277,-0.0288,-0.0278,-0.0287,-0.0286,-0.0268,-0.0264,-0.0254,-0.0232,-0.0222,-0.019,-0.0153,-0.0118,-0.0098,-0.0066,-0.0041,-0.0012,-0.0031,-0.0033,-0.0035,-0.0038,0.0009,0.001,-0.0009,-0.0009,-0.0009,0,0,-0.0285,-0.0285,-0.0291,-0.0291,-0.0283,-0.0285,-0.0265,-0.0265,-0.026,-0.0215,-0.0196,-0.0161,-0.0113,-0.0083,-0.0068,-0.0062,-0.0014,-0.0034,-0.0036,-0.0039,0.0009,0.0011,0.0013,-0.0009,-0.0009,-0.0009,0,0,-0.0307,-0.0308,-0.0325,-0.0322,-0.0318,-0.0304,-0.0308,-0.029,-0.0276,-0.0256,-0.0218,-0.018,-0.0135,-0.0094,-0.0068,-0.0062,-0.0028,-0.0055,-0.0072,-0.0027,-0.0025,-0.0023,0.0014,0.002,-0.0054,-0.0055,-0.0055,0,-0.0316,-0.0337,-0.0327,-0.034,-0.0341,-0.0316,-0.0328,-0.0309,-0.0281,-0.0266,-0.0256,-0.0177,-0.0137,-0.0088,-0.0085,-0.0066,-0.0041,-0.0068,-0.003,-0.0027,-0.0024,0.0014,0.002,-0.0056,-0.0056,-0.0056,-0.0056,0,-0.0349,-0.0365,-0.0374,-0.0381,-0.0378,-0.0386,-0.0362,-0.035,-0.0329,-0.0304,-0.0259,-0.0203,-0.0155,-0.0134,-0.0107,-0.0066,-0.0055,-0.004,-0.0026,-0.0025,0.0015,0.0023,-0.0059,-0.0058,-0.0058,-0.0057,0,0,-0.037,-0.0394,-0.0397,-0.041,-0.0402,-0.0404,-0.0391,-0.037,-0.036,-0.0319,-0.0295,-0.0226,-0.0197,-0.0165,-0.0121,-0.0078,-0.0034,-0.0058,-0.0055,-0.0026,0.0059,0.0043,0.0051,-0.0015,-0.0014,-0.0013,0.0078,0,-0.0397,-0.0438,-0.0436,-0.046,-0.0476,-0.045,-0.0441,-0.0416,-0.0382,-0.0351,-0.0282,-0.0244,-0.0207,-0.0185,-0.0136,-0.0062,-0.0016,-0.0061,0.0057,0.0061,0.0043,0.0059,-0.001,0.0084,0.0086,0.0087,0.0088,0,-0.0428,-0.0452,-0.0491,-0.0505,-0.0509,-0.0516,-0.0497,-0.0485,-0.0428,-0.0401,-0.0347,-0.0295,-0.0223,-0.0195,-0.0068,-0.0102,-0.0028,0.0032,0.0038,0.0041,0.0059,0.0084,0.0102,0.0101,0.01,0.0099,0.0098,0,-0.0451,-0.0485,-0.0521,-0.0527,-0.0538,-0.0546,-0.0543,-0.0504,-0.0491,-0.0432,-0.0413,-0.0323,-0.0275,-0.0177,-0.0057,-0.0063,0.0082,0.0094,0.0155,0.0155,0.0158,0.0155,0.0189,0.0189,0.0189,0.0189,0.0189,0,-0.0478,-0.0505,-0.0541,-0.0561,-0.0594,-0.0585,-0.0599,-0.0576,-0.0541,-0.0523,-0.0446,-0.0405,-0.027,-0.0171,-0.0066,0.0063,0.0079,0.0154,0.0179,0.014,0.0134,0.0163,0.0159,0.0192,0.0192,0.0191,0.019,0,-0.0494,-0.0521,-0.0565,-0.0597,-0.0611,-0.0634,-0.0649,-0.0649,-0.0613,-0.0585,-0.0569,-0.046,-0.0333,-0.0194,-0.0023,0.0049,0.0177,0.0224,0.0166,0.0187,0.0222,0.0215,0.0294,0.0295,0.0295,0.0295,0.0295,0,-0.0505,-0.0534,-0.0597,-0.063,-0.0652,-0.0685,-0.0705,-0.0688,-0.068,-0.0613,-0.0595,-0.0476,-0.0389,-0.0156,-0.002,0.0177,0.0207,0.0263,0.0246,0.0217,0.0234,0.0227,0.0219,0.0296,0.0296,0.0296,0.0296,0,-0.0519,-0.055,-0.0586,-0.0661,-0.0703,-0.074,-0.0762,-0.0763,-0.0728,-0.0701,-0.0596,-0.0472,-0.0326,-0.0153,-0.0,0.014,0.0215,0.0265,0.0266,0.0251,0.022,0.0234,0.0227,0.0296,0.0296,0.0296,0.0296,0,-0.0525,-0.0558,-0.0616,-0.0675,-0.0735,-0.0772,-0.0785,-0.0763,-0.0747,-0.0666,-0.0632,-0.0468,-0.037,-0.017,-0.0031,0.0101,0.0133,0.0166,0.0172,0.0173,0.0104,0.0044,0.0091,0,0,0,0,0,-0.0523,-0.0563,-0.0624,-0.0689,-0.075,-0.078,-0.0809,-0.0808,-0.078,-0.0707,-0.0663,-0.052,-0.0301,-0.0205,-0.0072,-0.0042,0.0139,0.0114,0.0175,0.0301,0.03,0.0237,0,0,0,0,0,0,-0.0524,-0.0582,-0.0618,-0.0686,-0.073,-0.0786,-0.0807,-0.0792,-0.074,-0.0693,-0.057,-0.0498,-0.0282,-0.0367,-0.0069,-0.0031,0.0022,0.0221,0.0223,0.0301,0.03,0.03,0.0235,0,0,0,0,0]}]]